Weather in Zolotonosha

Ukraine / Cherkassi District     49°40′12″N   32°02′22″E
temp.,
°C
wind,
m/s
gust,
m/s
humid.,
%
clouds,
%
prec.,
mm/h
press.,
hPa
HPBL,
m
2 july, sat
sat200:00+18nne34690 0.0 101858
03:00+16ene378320 0.0 1019148
06:00+15e49771 0.0 1021249
09:00+20e45430 0.0 1022652
12:00+23ene44310 0.0 10221423
15:00+26ne34271 0.0 10211864
18:00+25nne44280 0.0 10211774
21:00+18ene46500 0.0 102178
3 july, sun
sun300:00+15e33620 0.0 102227
03:00+13ese11710 0.0 102210
06:00+14sw11725 0.0 102110
09:00+22nne11487 0.0 1021497
12:00+26sse113120 0.0 10201332
15:00+28ssw1125100 0.0 10191902
18:00+27wsw1230100 0.0 1018877
21:00+20w004113 0.0 101811
4 july, mon
mon400:00+18e22495 0.0 101812
03:00+16s11540 0.0 101811
06:00+17ssw11535 0.0 101811
09:00+25ssw11374 0.0 1018373
12:00+29sse22262 0.0 10171538
15:00+31s32235 0.0 10162012
18:00+30se32248 0.0 10151002
21:00+22se33460 0.0 101632
5 july, tue
tue500:00+23se3539100 0.0 101688
03:00+21se344968 0.0 101661
06:00+21se365795 0.0 1016111
09:00+27sse463937 0.0 1016477
12:00+31s44306 0.0 10161186
15:00+34se442735 0.0 10142628
18:00+34sse222714 0.0 10132526
21:00+26se4943100 0.0 1014145
6 july, wed
wed600:00+25sse410495 0.0 1014198
03:00+24sse512490 0.0 1014234
06:00+21sse35550 0.0 101482
09:00+28ssw353691 0.0 1014443
12:00+34s5724100 0.0 10131967
15:00+37ssw671899 0.0 10113792
18:00+30nnw6840100 0.0 1012460
21:00+20nnw41189100 1.3 1016441